N8DH Weather Reports


Display with metric or nautical units.
time (UTC)temp
F
wind
direction
speed
MPH
gust
MPH
rain 1hr
in
rain 24hr
in
rain mn
in
humidity
%
barometer
mb
20260503190034 60 221 6.0 22.0 0.00 0.00 0.00 41 1007.8
20260503184524 60 179 9.0 19.0 0.00 0.00 0.00 43 1007.9
20260503183023 60 225 8.0 20.0 0.00 0.00 0.00 45 1008.1
20260503181519 60 221 6.0 20.0 0.00 0.00 0.00 44 1008.2
20260503180014 59 254 7.0 18.0 0.00 0.00 0.00 42 1008.5
20260503174516 58 190 8.0 18.0 0.00 0.00 0.00 46 1008.6
20260503173011 59 190 11.0 17.0 0.00 0.00 0.00 48 1008.8
20260503171511 59 271 6.0 15.0 0.00 0.00 0.00 49 1009.1
20260503081527 37 200 2.0 4.0 0.00 0.07 0.00 77 1010.4
20260503071513 37 192 3.0 7.0 0.00 0.09 0.00 80 1010.3
20260503054526 38 212 0.0 3.0 0.00 0.13 0.00 83 1010.7
20260503053029 38 198 1.0 4.0 0.00 0.13 0.00 83 1010.8
20260503051521 38 200 1.0 3.0 0.00 0.13 0.00 83 1010.8
20260503050016 38 181 1.0 2.0 0.00 0.13 0.00 82 1010.8
20260503044510 39 182 2.0 4.0 0.00 0.13 0.00 82 1010.8
20260503043016 39 189 1.0 3.0 0.00 0.13 0.00 81 1010.8
20260503041508 40 200 0.0 3.0 0.00 0.13 0.00 80 1010.8
20260503040009 41 182 1.0 3.0 0.00 0.14 0.13 79 1010.9
20260503034524 41 173 1.0 4.0 0.00 0.14 0.13 78 1011.0
20260503033027 41 182 2.0 4.0 0.00 0.14 0.13 78 1011.1
20260503031521 41 186 3.0 6.0 0.00 0.14 0.13 76 1011.1
20260503030024 41 190 2.0 5.0 0.00 0.23 0.13 76 1011.2
20260503024518 41 192 2.0 6.0 0.00 0.23 0.13 77 1011.2
20260503023020 41 181 2.0 5.0 0.00 0.23 0.13 77 1011.4
20260503021515 41 193 3.0 4.0 0.00 0.23 0.13 76 1011.4
20260503020013 42 202 2.0 6.0 0.00 0.23 0.13 77 1011.4
20260503014510 42 192 2.0 3.0 0.00 0.23 0.13 78 1011.3
20260503013010 42 167 1.0 5.0 0.00 0.23 0.13 76 1011.2
20260503011515 42 182 1.0 3.0 0.00 0.23 0.13 76 1011.2
20260503010029 42 201 0.0 2.0 0.00 0.23 0.13 75 1011.2
20260503004519 42 264 0.0 2.0 0.00 0.23 0.13 73 1011.1
20260503003022 42 278 0.0 2.0 0.00 0.23 0.13 75 1011.0
20260503001515 43 229 0.0 2.0 0.00 0.23 0.13 73 1011.1
20260503000015 43 229 0.0 2.0 0.00 0.23 0.13 67 1011.0
20260502234522 43 229 0.0 2.0 0.00 0.23 0.13 63 1011.0
20260502233011 43 249 0.0 2.0 0.00 0.23 0.13 62 1010.9
20260502231510 44 273 0.0 2.0 0.00 0.23 0.13 60 1011.0
20260502230025 43 265 1.0 3.0 0.00 0.23 0.13 61 1011.0
20260502224521 43 269 0.0 3.0 0.00 0.23 0.13 63 1011.0
20260502223024 44 263 1.0 3.0 0.00 0.23 0.13 61 1011.1
20260502221519 44 22 0.0 4.0 0.00 0.23 0.13 63 1011.0
20260502220018 44 331 2.0 5.0 0.00 0.23 0.13 57 1011.1
20260502214532 44 242 2.0 7.0 0.00 0.23 0.13 57 1011.0
20260502213012 44 252 1.0 4.0 0.00 0.23 0.13 60 1011.0
20260502211517 44 273 2.0 8.0 0.00 0.23 0.13 59 1010.8
20260502210021 44 348 1.0 5.0 0.00 0.23 0.13 59 1010.9
20260502204524 44 261 1.0 5.0 0.00 0.23 0.13 61 1010.9
20260502203022 44 279 0.0 7.0 0.00 0.23 0.13 62 1011.0
20260502201518 44 197 2.0 6.0 0.00 0.23 0.13 58 1011.0
20260502200021 44 266 3.0 8.0 0.00 0.23 0.13 59 1011.2
20260502194518 44 261 2.0 6.0 0.00 0.23 0.13 59 1011.2
20260502193014 45 318 2.0 7.0 0.00 0.23 0.13 63 1011.4
20260502191519 45 312 2.0 7.0 0.00 0.23 0.13 54 1011.5